Regional Weather Roundup
Issued by NWS Little Rock, AR

Home | Current Version | Previous Version | Text Only | Print | Product List | Glossary Off
Versions: 1 2 3 4 5 6 7 8 9 10 11 12 13 14 15 16 17 18 19 20 21 22 23 24 25 26 27 28 29 30 31 32 33 34 35 36 37 38 39 40 41 42 43 44 45 46 47 48 49 50

000
ASUS44 KLZK 310205
RWRLZK

WEATHER ROUNDUP FOR ARKANSAS
NATIONAL WEATHER SERVICE LITTLE ROCK AR
800 PM CST FRI JAN 30 2015

NOTE: "FAIR" INDICATES FEW OR NO CLOUDS BELOW 12,000 FEET WITH NO
SIGNIFICANT WEATHER AND/OR OBSTRUCTIONS TO VISIBILITY.

ARZ001-003-010-029-310300-
NORTHWEST ARKANSAS

CITY           SKY/WX    TMP DP  RH WIND       PRES   REMARKS
FAYETTEVILLE   CLOUDY    39  27  62 CALM      30.39F
FORT SMITH     CLOUDY    46  27  47 E6        30.41S
HARRISON       MOCLDY    39  19  44 CALM      30.40S
BENTONVILLE    CLOUDY    43  21  42 E3        30.39F
ROGERS         CLOUDY    43  21  41 E5        30.39F
SILOAM SPGS    CLOUDY    43  19  39 E5        30.39F
HIGHFILL       CLOUDY    40  24  53 CALM      30.38F
SPRINGDALE     MOCLDY    41  25  52 CALM      30.40F
$$

ARZ004-005-016-310300-
NORTH CENTRAL ARKANSAS

CITY           SKY/WX    TMP DP  RH WIND       PRES   REMARKS
BATESVILLE     PTCLDY    37  25  60 SE5       30.44F
FLIPPIN        PTCLDY    34  18  51 CALM      30.42S
MTN HOME       PTCLDY    41  16  36 S3        30.42R
$$

ARZ040-041-310300-
WEST CENTRAL ARKANSAS

CITY           SKY/WX    TMP DP  RH WIND       PRES   REMARKS
MENA           PTCLDY    41  30  65 W3        30.40S
MOUNT IDA      PTCLDY    41  30  65 CALM      30.39S
$$

ARZ009-017-025-026-028-310300-
NORTHEAST ARKANSAS

CITY           SKY/WX    TMP DP  RH WIND       PRES   REMARKS
CORNING        FAIR      36  28  75 CALM      30.46S
JONESBORO      CLEAR     33  27  78 E3        30.46S
NEWPORT        LGT RAIN  35  30  82 E8        30.46F WCI  28
WALNUT RIDGE   CLEAR     36  27  69 E5        30.45F
BLYTHEVILLE    CLEAR     31  27  85 N6        30.46S WCI  25
$$

ARZ022-023-033-042-044-310300-
CENTRAL ARKANSAS

CITY           SKY/WX    TMP DP  RH WIND       PRES   REMARKS
LITTLE ROCK    PTCLDY    40  25  55 NE6       30.45R
N LITTLE ROCK  PTCLDY    40  28  62 E3        30.45R
JACKSONVILLE   PTCLDY    35  25  69 NE1       30.44R
SEARCY         CLEAR     38  26  62 NE6       30.46F
HOT SPRINGS    PTCLDY    38  27  64 E6        30.43R
RUSSELLVILLE   MOCLDY    38  29  70 CALM      30.42F
CLINTON        FAIR      36  28  75 CALM      30.45S
$$

ARZ036-310300-
EAST ARKANSAS

CITY           SKY/WX    TMP DP  RH WIND       PRES   REMARKS
WEST MEMPHIS   CLEAR     35  28  75 N7        30.45R WCI  29
$$

ARZ050-053-066-070-073-310300-
SOUTHWEST ARKANSAS

CITY           SKY/WX    TMP DP  RH WIND       PRES   REMARKS
ARKADELPHIA    FAIR      42  33  70 CALM      30.44R
CAMDEN         CLEAR     37  28  70 MISG      30.43R
TEXARKANA      MOCLDY    42  34  73 CALM      30.41R
EL DORADO      PTCLDY    38  30  73 CALM      30.42R
DE QUEEN       MOCLDY    43  33  68 E3        30.40R
$$

ARZ056-057-069-310300-
SOUTHEAST ARKANSAS

CITY           SKY/WX    TMP DP  RH WIND       PRES   REMARKS
PINE BLUFF     CLEAR     39  27  62 NE5       30.44S
STUTTGART      CLEAR     37  27  65 NE8       30.45S
MONTICELLO     PTCLDY    38  30  73 CALM      30.42S

$$





USA.gov is the U.S. government's official web portal to all federal, state and local government web resources and services.